Location: Chippewa Lake
(41.0698°N, 81.9010°W)
Time: 21:54:04
(UTC+00:00)

Cosmos 1707 - Pass Details

Date: 09 May 2021
Orbit: 516 x 528 km, 82.5° (Epoch: 17 June)

Event Time Altitude Azimuth Distance (km) Brightness Sun altitude
Exits shadow 07:02:22 36° 51° (NE) 834 4.1 -27.2°
Drops below altitude 10° 07:05:03 10° 20° (NNE) 1,752 6.4 -27.0°
Sets 07:07:14 0° 15° (NNE) 2,644 7.5 -26.8°
